TimeSAST,TemperatureF,Dew PointF,Humidity,Sea Level PressureIn,VisibilityMPH,Wind Direction,Wind SpeedMPH,Gust SpeedMPH,PrecipitationIn,Events,Conditions,WindDirDegrees,DateUTC
12:00 AM,62.6,59.0,88,30.21,3.7,West,3.5,-,N/A,Rain,Rain,280,2014-01-12 22:00:00
1:00 AM,60.8,59.0,94,30.21,3.7,West,3.5,-,N/A,Rain,Light Rain,270,2014-01-12 23:00:00
2:00 AM,61,58,87,30.20,6,,2.3,,,,,,2014-01-13 00:00:00
2:00 AM,60.8,59.0,94,30.18,6.2,Variable,2.3,-,N/A,Rain,Light Rain,0,2014-01-13 00:00:00
3:00 AM,60.8,57.2,88,30.18,5.6,NW,3.5,-,N/A,Rain,Light Rain,320,2014-01-13 01:00:00
4:00 AM,60.8,57.2,88,30.18,6.2,West,2.3,-,N/A,Rain,Light Rain,270,2014-01-13 02:00:00
5:00 AM,60,56,82,30.21,6,South,5.8,,,Rain,Light Rain,190,2014-01-13 03:00:00
5:00 AM,59.0,55.4,88,30.18,5.6,South,5.8,-,N/A,Rain,Light Rain,190,2014-01-13 03:00:00
6:00 AM,59.0,53.6,82,30.21,6.2,South,6.9,-,N/A,,Mostly Cloudy,170,2014-01-13 04:00:00
7:00 AM,60.8,55.4,82,30.21,6.2,North,3.5,-,N/A,,Mostly Cloudy,350,2014-01-13 05:00:00
8:00 AM,61,54,71,30.25,12,,2.3,,,,Overcast,,2014-01-13 06:00:00
8:00 AM,60.8,53.6,77,30.24,6.2,Variable,2.3,-,N/A,,Mostly Cloudy,0,2014-01-13 06:00:00
9:00 AM,62.6,53.6,72,30.24,6.2,South,8.1,-,N/A,,Mostly Cloudy,180,2014-01-13 07:00:00
10:00 AM,62.6,51.8,68,30.24,6.2,South,5.8,-,N/A,,Mostly Cloudy,180,2014-01-13 08:00:00
11:00 AM,63,51,56,30.25,12,South,5.8,,,,Mostly Cloudy,180,2014-01-13 09:00:00
11:00 AM,62.6,51.8,68,30.24,6.2,South,5.8,-,N/A,,Mostly Cloudy,180,2014-01-13 09:00:00
12:00 PM,64.4,51.8,64,30.24,6.2,Variable,3.5,-,N/A,,Mostly Cloudy,0,2014-01-13 10:00:00
1:00 PM,66.2,51.8,60,30.21,6.2,Variable,1.2,-,N/A,,Mostly Cloudy,0,2014-01-13 11:00:00
2:00 PM,68,53,47,30.20,12,South,8.1,,,,Mostly Cloudy,170,2014-01-13 12:00:00
2:00 PM,68.0,53.6,60,30.21,6.2,South,9.2,-,N/A,,Mostly Cloudy,170,2014-01-13 12:00:00
3:00 PM,68.0,53.6,60,30.21,6.2,SSE,9.2,-,N/A,,Mostly Cloudy,160,2014-01-13 13:00:00
4:00 PM,66.2,53.6,64,30.18,6.2,SSE,10.4,-,N/A,,Mostly Cloudy,150,2014-01-13 14:00:00
5:00 PM,65,53,57,30.17,12,SE,9.2,,,,Mostly Cloudy,140,2014-01-13 15:00:00
5:00 PM,64.4,51.8,64,30.18,6.2,SE,9.2,-,N/A,,Mostly Cloudy,140,2014-01-13 15:00:00
6:00 PM,64.4,53.6,68,30.15,6.2,SE,9.2,-,N/A,,Mostly Cloudy,140,2014-01-13 16:00:00
7:00 PM,64.4,51.8,64,30.18,6.2,ESE,6.9,-,N/A,,Mostly Cloudy,110,2014-01-13 17:00:00
8:00 PM,63,53,62,30.18,12,ESE,6.9,,,,Mostly Cloudy,120,2014-01-13 18:00:00
8:00 PM,62.6,53.6,72,30.18,6.2,ESE,8.1,-,N/A,,Mostly Cloudy,120,2014-01-13 18:00:00
9:00 PM,60.8,53.6,77,30.15,6.2,East,4.6,-,N/A,,Mostly Cloudy,90,2014-01-13 19:00:00
10:00 PM,59.0,53.6,82,30.15,-9999.0,East,5.8,-,N/A,,Clear,90,2014-01-13 20:00:00
11:00 PM,57.2,51.8,82,30.15,-9999.0,East,6.9,-,N/A,,Clear,90,2014-01-13 21:00:00